[[{"header":{"parameterUnit":"m.s-1","parameterCategory":1,"la1":30.2991,"la2":30.254,"lo1":-89.0895,"lo2":-89.0444,"dy":0.0017,"dx":0.0017,"nx":28,"ny":28,"refTime":"2025-09-04T21:00:00:Z","depth":0,"parameterNumber":2,"parameterNumberName":"U-component_of_WINDS"},"data":[0,0,0,0,0,0,0,0,0,0,0,0,0,0,0,0,0,0,0,0,0,0,0,0,0,0,0,0,0,0,0,0,0,0,0,0,0,0,0,0,0,0,0,0,0,0,0,0,0,0,0,0,0,0,0,0,0,0,0.3158,0.3159,0,0.3235,0.3236,0.3237,0.3277,0.3277,0.3277,0.3277,0.3353,0.3355,0.3357,0,0,0,0,0,0,0,0,0,0,0,0,0,0.3042,0.3044,0.3158,0.3159,0.316,0.3235,0.3236,0.3237,0.3277,0.3277,0.3277,0.3277,0.3352,0.3355,0.3357,0,0,0,0,0,0,0,0,0,0,0,0,0,0.3103,0.3044,0.3158,0.3189,0.3193,0.3235,0.3236,0.3237,0.3277,0.3277,0.3277,0.3277,0.3351,0.3354,0.3357,0.3373,0,0,0.3366,0.3367,0,0,0,0,0,0,0,0,0.3099,0.3107,0.3184,0.3187,0.3191,0.3247,0.3223,0.3283,0.3277,0.3245,0.3277,0.3277,0.3317,0.3323,0.3337,0.3377,0.338,0.3366,0.3368,0.3369,0.337,0,0,0,0,0,0,0,0.3095,0.3104,0.3189,0.3185,0.3189,0.3198,0.3207,0.3234,0.3279,0.3248,0.3251,0.3259,0.3319,0.3334,0.3339,0.3381,0.3366,0.3369,0.3371,0.3372,0.3437,0.3437,0,0,0,0,0,0,0.3086,0.31,0.3186,0.3191,0.3145,0.32,0.321,0.3229,0.3279,0.3287,0.3259,0.3261,0.3329,0.3336,0.3342,0.3364,0.3369,0.3372,0.3374,0.3437,0.3437,0.3437,0,0,0,0,0,0,0.3084,0.3094,0.3183,0.3146,0.3158,0.3202,0.3223,0.323,0.3245,0.3288,0.3296,0.3266,0.3329,0.3338,0.3365,0.3367,0.3374,0.3376,0.3437,0.3437,0.3437,0.3408,0,0,0,0,0,0,0.308,0.3092,0.31,0.3146,0.316,0.3206,0.3223,0.3231,0.325,0.3253,0.3297,0.3304,0.333,0.3361,0.3368,0.3371,0.3379,0.3437,0.3437,0.3437,0.3409,0.3406,0.3405,0,0,0,0,0,0.3076,0.3088,0.31,0.311,0.3171,0.3206,0.3214,0.3244,0.325,0.3258,0.3285,0.3303,0.3365,0.3363,0.3372,0.3376,0.3437,0.3437,0.3437,0.3409,0.3407,0.3405,0,0,0,0,0,0,0.304,0.3095,0.3109,0.3137,0.3167,0.3213,0.3223,0.3241,0.3269,0.327,0.3306,0.3315,0.3339,0.336,0.3357,0.3393,0.3403,0.3405,0.3379,0.3377,0.3375,0.3369,0.3381,0,0,0,0,0,0.3036,0.3061,0.3107,0.3127,0.3142,0.318,0.3196,0.3217,0.3249,0.3261,0.3291,0.332,0.3346,0.3363,0.3389,0.3412,0.3421,0.3418,0.3416,0.3415,0.3416,0.3428,0.3427,0.3437,0.3437,0.3437,0,0,0.3027,0.306,0.3073,0.3121,0.3147,0.317,0.319,0.3215,0.3232,0.3265,0.3293,0.3315,0.335,0.3374,0.3387,0.3393,0.3415,0.3415,0.3413,0.3415,0.3428,0.3427,0.3426,0.3437,0.3437,0.3437,0,0,0.3023,0.305,0.307,0.3095,0.3134,0.3159,0.3163,0.3207,0.3223,0.3251,0.3276,0.3297,0.3341,0.3365,0.3383,0.3386,0.3403,0.3393,0.3383,0.3395,0.3394,0.3393,0.3394,0.3393,0.3394,0.3394,0.3394,0,0.3006,0.3045,0.3077,0.3101,0.312,0.3151,0.317,0.3193,0.3237,0.3249,0.3256,0.3312,0.3337,0.3367,0.3368,0.3382,0.3387,0.3389,0.3392,0.3391,0.3391,0.3392,0.3392,0.3393,0.3393,0.3393,0.3393,0,0.3022,0.3048,0.3059,0.3102,0.3123,0.3144,0.3179,0.3195,0.3214,0.3238,0.3265,0.3297,0.333,0.3339,0.3357,0.3371,0.3373,0.3385,0.3395,0.3388,0.3389,0.339,0.3391,0.3391,0.3391,0.3392,0,0,0.2998,0.3059,0.3062,0.3082,0.3126,0.3146,0.3168,0.3201,0.3214,0.3243,0.3261,0.3298,0.3309,0.3329,0.3349,0.336,0.3359,0.337,0.3371,0.3366,0.3375,0.3365,0.3365,0.337,0.337,0.337,0.3372,0,0.3,0.3042,0.3071,0.3101,0.3125,0.3154,0.3172,0.32,0.3223,0.3245,0.3269,0.3294,0.3307,0.3319,0.333,0.3356,0.3361,0.3357,0.3386,0.3387,0.3377,0.3366,0.3357,0.3357,0.3372,0.3372,0.3373,0,0.3008,0.3037,0.3069,0.311,0.3121,0.3137,0.3169,0.3191,0.3222,0.3238,0.326,0.3281,0.3303,0.3311,0.3342,0.3339,0.3352,0.3366,0.3367,0.3371,0.3379,0.3369,0.3357,0.3357,0.3374,0.3374,0.3374,0,0.2987,0.3034,0.3059,0.3075,0.3123,0.3134,0.3154,0.3186,0.3203,0.3231,0.3242,0.3271,0.3287,0.3309,0.3337,0.334,0.3364,0.3375,0.3377,0.3376,0.338,0.338,0.337,0.3389,0.3389,0.3389,0.3389,0,0.2986,0.3004,0.305,0.3066,0.3086,0.3119,0.3139,0.3161,0.3189,0.3208,0.3234,0.3251,0.3288,0.3308,0.333,0.3352,0.3359,0.3371,0.3376,0.3369,0.3367,0.3378,0.3378,0.339,0.3389,0.3389,0.3389,0,0.2966,0.2998,0.3027,0.307,0.3081,0.3094,0.3131,0.3146,0.3169,0.3193,0.32,0.3237,0.3263,0.3293,0.3328,0.3343,0.3362,0.3371,0.3352,0.3355,0.3355,0.3354,0.3352,0.3353,0.3371,0.3371,0.3371,0,0.2963,0.2978,0.3023,0.3038,0.3058,0.3082,0.31,0.3132,0.3149,0.3186,0.3196,0.3224,0.3248,0.3288,0.3317,0.3344,0.3353,0.335,0.3357,0.3348,0.3352,0.3351,0.3352,0.3348,0.3348,0.3347,0.3347,0,0.2955,0.2969,0.2995,0.3026,0.3047,0.3072,0.3098,0.3109,0.3146,0.3164,0.3191,0.321,0.3246,0.3273,0.3303,0.3323,0.3341,0.3345,0.3346,0.3338,0.3327,0.3332,0.3346,0.3345,0.3345,0.3345,0.3345,0.3345,0.2943,0.2957,0.2991,0.3018,0.3041,0.3065,0.3081,0.3106,0.313,0.3163,0.318,0.3206,0.3236,0.3279,0.3297,0.3317,0.3323,0.3326,0.3327,0.3327,0.3324,0.3323,0.3323,0.3323,0.3323,0.3323,0.3323,0,0.2935,0.2958,0.2983,0.3019,0.304,0.3056,0.3085,0.3101,0.3125,0.3151,0.3174,0.3205,0.3231,0.3261,0.3289,0.3299,0.3307,0.3305,0.3304,0.3308,0.3318,0.3313,0.3297,0.3297,0.3297,0.3297,0.3297,0.3297,0.2934,0.2958,0.2977,0.3012,0.3034,0.3061,0.3077,0.3098,0.312,0.3153,0.3174,0.3194,0.3222,0.3251,0.3275,0.3283,0.3292,0.3287,0.3297,0.3305,0.3308,0.331,0.3306,0.3288,0.3288,0.3286,0.3286,0.3286]},{"header":{"parameterUnit":"m.s-1","parameterCategory":1,"la1":30.2991,"la2":30.254,"lo1":-89.0895,"lo2":-89.0444,"dy":0.0017,"dx":0.0017,"nx":28,"ny":28,"refTime":"2025-09-04T21:00:00:Z","depth":0,"parameterNumber":3,"parameterNumberName":"V-component_of_WINDS"},"data":[0,0,0,0,0,0,0,0,0,0,0,0,0,0,0,0,0,0,0,0,0,0,0,0,0,0,0,0,0,0,0,0,0,0,0,0,0,0,0,0,0,0,0,0,0,0,0,0,0,0,0,0,0,0,0,0,0,0,4.5456,4.5456,0,4.5451,4.5451,4.5451,4.5413,4.5412,4.5411,4.541,4.5405,4.5406,4.5407,0,0,0,0,0,0,0,0,0,0,0,0,0,4.5432,4.5433,4.5456,4.5456,4.5456,4.5451,4.5451,4.5451,4.5413,4.5412,4.541,4.5409,4.5405,4.5406,4.5407,0,0,0,0,0,0,0,0,0,0,0,0,0,4.5436,4.5433,4.5456,4.5436,4.5434,4.5451,4.5451,4.5451,4.5413,4.5412,4.541,4.5409,4.5405,4.5406,4.5407,4.5443,0,0,4.5411,4.5411,0,0,0,0,0,0,0,0,4.5436,4.5437,4.5439,4.5437,4.5435,4.5431,4.5441,4.5448,4.5413,4.5421,4.541,4.5408,4.5415,4.5415,4.5418,4.5443,4.5442,4.5411,4.5411,4.5412,4.5412,0,0,0,0,0,0,0,4.5436,4.5437,4.5454,4.5439,4.5437,4.5428,4.5427,4.5442,4.5426,4.542,4.5417,4.5417,4.5414,4.5417,4.5417,4.5442,4.5411,4.5412,4.5412,4.5413,4.5496,4.5497,0,0,0,0,0,0,4.5438,4.5437,4.5454,4.5454,4.5432,4.5429,4.5428,4.5434,4.5426,4.5423,4.5419,4.5416,4.5415,4.5416,4.5417,4.5457,4.5412,4.5413,4.5414,4.5494,4.5496,4.5498,0,0,0,0,0,0,4.5438,4.544,4.5454,4.5445,4.5446,4.5431,4.5438,4.5435,4.5437,4.5425,4.5422,4.5424,4.5414,4.5415,4.5436,4.5456,4.5413,4.5415,4.5492,4.5495,4.5497,4.5539,0,0,0,0,0,0,4.5437,4.544,4.5454,4.5445,4.5447,4.5474,4.5439,4.5435,4.5439,4.5435,4.5429,4.5427,4.5413,4.5435,4.5438,4.5457,4.5415,4.5491,4.5493,4.5496,4.5535,4.5542,4.5548,0,0,0,0,0,4.5437,4.5466,4.5454,4.5457,4.5463,4.5475,4.5476,4.5459,4.5441,4.5454,4.5446,4.5427,4.5454,4.5437,4.544,4.546,4.5489,4.5493,4.5496,4.5533,4.5541,4.5548,0,0,0,0,0,0,4.5477,4.5464,4.5452,4.5479,4.5478,4.5469,4.5485,4.5469,4.5473,4.5469,4.5449,4.5448,4.5472,4.5469,4.545,4.5494,4.5468,4.5473,4.5495,4.5503,4.5509,4.5509,4.5416,0,0,0,0,0,4.5489,4.55,4.5488,4.5514,4.5514,4.55,4.5504,4.5492,4.549,4.549,4.5484,4.5483,4.5491,4.5497,4.5504,4.5535,4.5533,4.5551,4.5557,4.5562,4.5565,4.5581,4.5588,4.5509,4.5509,4.5509,0,0,4.5514,4.5508,4.5516,4.5522,4.552,4.5531,4.55,4.5513,4.5522,4.5492,4.5511,4.5507,4.5505,4.5531,4.5542,4.5529,4.5587,4.5567,4.5571,4.5571,4.5585,4.5592,4.5599,4.5511,4.5511,4.551,0,0,4.5565,4.5562,4.5582,4.5581,4.5578,4.5569,4.5574,4.5567,4.5562,4.5581,4.5559,4.5569,4.5584,4.5583,4.5585,4.5637,4.5619,4.564,4.5671,4.5686,4.5693,4.5698,4.5715,4.5722,4.5643,4.5643,4.5643,0,4.5596,4.5612,4.5595,4.561,4.5612,4.5586,4.5606,4.5606,4.5606,4.5609,4.5594,4.5612,4.5609,4.5634,4.5647,4.565,4.5654,4.5639,4.5693,4.5698,4.5703,4.5719,4.5726,4.5646,4.5646,4.5645,4.5645,0,4.565,4.5662,4.5679,4.5679,4.5684,4.5701,4.5686,4.5694,4.5681,4.5673,4.5692,4.5688,4.5694,4.5699,4.5687,4.5722,4.5714,4.5697,4.567,4.5714,4.5728,4.5734,4.5649,4.5648,4.5648,4.5647,0,0,4.5725,4.5715,4.5722,4.5721,4.5717,4.5726,4.5742,4.5747,4.5753,4.5755,4.5768,4.5781,4.5765,4.5767,4.5755,4.5769,4.5808,4.5749,4.5749,4.5759,4.5846,4.5857,4.5865,4.5797,4.5798,4.5799,4.5845,0,4.5772,4.5799,4.5784,4.5814,4.5824,4.58,4.5814,4.5813,4.5806,4.5814,4.5807,4.5816,4.5795,4.5796,4.5808,4.5801,4.5825,4.5797,4.5808,4.5809,4.5808,4.5873,4.5885,4.5929,4.5851,4.5852,4.5853,0,4.5831,4.5835,4.5865,4.5858,4.5862,4.5875,4.5878,4.5886,4.5885,4.5879,4.5881,4.5866,4.5882,4.5857,4.5878,4.5859,4.5863,4.586,4.5861,4.586,4.5832,4.5872,4.5943,4.5949,4.5862,4.5861,4.5861,0,4.5881,4.5893,4.5913,4.5913,4.5906,4.5916,4.5914,4.591,4.5914,4.5918,4.592,4.5925,4.5928,4.5933,4.5919,4.5902,4.5942,4.5916,4.5936,4.5937,4.5944,4.5944,4.6015,4.595,4.595,4.595,4.595,0,4.5935,4.5954,4.5935,4.5946,4.5967,4.595,4.5971,4.5966,4.5964,4.5974,4.5954,4.5965,4.5947,4.5955,4.5945,4.5964,4.5965,4.5961,4.5957,4.5961,4.5962,4.5962,4.5958,4.5951,4.5951,4.5951,4.595,0,4.5993,4.5981,4.6,4.5992,4.5991,4.6006,4.5999,4.601,4.6002,4.6015,4.6018,4.6005,4.6014,4.6002,4.6009,4.6003,4.6027,4.6021,4.6028,4.6025,4.6046,4.6044,4.6119,4.6127,4.6058,4.6059,4.606,0,4.6028,4.6041,4.6035,4.604,4.6039,4.6048,4.6052,4.6036,4.6041,4.604,4.6051,4.6058,4.6063,4.6078,4.607,4.6076,4.6068,4.6094,4.6069,4.6072,4.6066,4.6065,4.6066,4.6099,4.6099,4.61,4.6101,0,4.6089,4.6083,4.6089,4.6093,4.6098,4.6101,4.6102,4.6108,4.6091,4.6098,4.6106,4.611,4.6118,4.6125,4.6129,4.6126,4.6111,4.6109,4.6114,4.6117,4.612,4.6117,4.604,4.6107,4.6106,4.6106,4.6105,4.6105,4.6136,4.6147,4.6143,4.6151,4.615,4.6152,4.6161,4.6154,4.6161,4.6166,4.6157,4.6168,4.6166,4.6169,4.6168,4.6177,4.6165,4.6173,4.6174,4.6176,4.6179,4.612,4.6178,4.6178,4.6177,4.6177,4.6177,0,4.6195,4.6192,4.6199,4.6201,4.6207,4.6192,4.6193,4.6198,4.6208,4.6208,4.6213,4.6223,4.623,4.6223,4.6228,4.6236,4.6229,4.6238,4.6236,4.6236,4.6189,4.6184,4.6244,4.6244,4.6244,4.6244,4.6244,4.6244,4.6227,4.6244,4.6237,4.6254,4.6251,4.6261,4.6262,4.6264,4.6263,4.6275,4.6281,4.6276,4.6272,4.6278,4.6283,4.6281,4.6283,4.6295,4.629,4.6246,4.6239,4.6233,4.6228,4.6296,4.6296,4.6336,4.6336,4.6336]}]]